Location: Claflin County Park
(44.8478°N, 87.5507°W)
Time: 03:36:28
(UTC+00:00)

USA 234 - Pass Details

Date: 18 March 2026
Orbit: 1102 x 1106 km, 123.0° (Epoch: 4 January)

Event Time Altitude Azimuth Distance (km) Brightness Sun altitude
Exits shadow 05:06:44 20° 299° (WNW) 2,320 5.2 -44.6°
Drops below altitude 10° 05:08:32 10° 304° (NW) 2,968 5.9 -44.7°
Sets 05:11:05 0° 308° (NW) 3,929 6.7 -44.9°
